Simultaneous Nadir Overpasses (SNOs) Predictions

Prediction of SNOs between NOAA-20 and NOAA-19 Satellite Orbit:

Table of predicted SNOs for the next 14.0 days since TLE Epoch: 6/14/2024
Index Date (NOAA-20) Time (NOAA-20) Lat,Lon (NOAA-20) SZA (NOAA-20 ) Date (NOAA-19) Time (NOAA-19) Lat,Lon (NOAA-19) SZA (NOAA-19 ) Distance(km) Time Diff (sec)
1 06/24/2024 17:19:46 -72.98, 91.37 130.23 06/24/2024 17:18:32 -72.98, 90.76 130.18 19.85 74
2 06/24/2024 18:10:35 73.13,-101.64 49.94 06/24/2024 18:09:28 73.12,-101.65 49.95 1.32 67
3 06/24/2024 19:01:19 -73.15, 65.64 130.04 06/24/2024 19:00:26 -73.17, 65.71 130.02 3.16 53
4 06/24/2024 19:52:05 73.15,-127.05 49.96 06/24/2024 19:51:25 73.17,-127.04 49.99 2.15 40
5 06/24/2024 20:42:49 -73.17, 40.23 130.03 06/24/2024 20:42:24 -73.17, 40.21 130.02 0.51 25
6 06/24/2024 21:33:35 73.17,-152.46 49.98 06/24/2024 21:33:23 73.17,-152.53 49.99 2.31 12
7 06/24/2024 22:24:19 -73.18, 14.82 130.01 06/24/2024 22:24:21 -73.21, 14.83 129.98 3.19 2
8 06/24/2024 23:15:06 73.23,-177.98 50.05 06/24/2024 23:15:20 73.21,-177.92 50.03 3.04 14
9 06/25/2024 00:05:49 -73.20, -10.59 129.99 06/25/2024 00:06:19 -73.21, -10.67 129.98 2.82 30
10 06/25/2024 00:56:36 73.25, 156.61 50.07 06/25/2024 00:57:17 73.26, 156.70 50.07 3.13 41
11 06/25/2024 01:47:20 -73.26, -36.11 129.91 06/25/2024 01:48:16 -73.25, -36.05 129.94 2.11 56
12 06/25/2024 02:38:06 73.26, 131.20 50.09 06/25/2024 02:39:15 73.25, 131.21 50.07 0.95 69
13 06/25/2024 03:28:57 -73.63, -62.31 129.50 06/25/2024 03:30:07 -73.59, -60.74 129.65 49.50 70



Historial Predications of SNOs between NOAA-20 and NOAA-19
